Terminal Aerodrome Forecast
Issued by NWS St Louis, MO

Home | Current Version | Previous Version | Text Only | Print | Product List | Glossary On
Versions: 1 2 3 4 5 6 7 8 9 10 11 12 13 14 15 16 17 18 19 20 21 22 23 24 25 26 27 28 29 30 31 32
000
FTUS43 KLSX 192000 AAA
TAFSTL
TAF AMD
KSTL 192056Z 1921/2024 25007KT P6SM SCT040 SCT120
     FM200100 VRB04KT P6SM SCT250
     FM201700 22007KT P6SM SCT040 SCT100=

USA.gov is the U.S. government's official web portal to all federal, state and local government web resources and services.